Home   Weather   Minden   Past weeks
Flag for Germany

Past Weather in Minden, North Rhine-Westphalia, Germany — Yesterday and Last 2 Weeks

Now
64 °F

Passing clouds.


Feels Like: 64 °F
Forecast: 84 / 61 °F
Wind: 3 mph from South

Location: Bueckeburg

Current Time: Jul 19, 2019 at 4:42:14 am

Latest Report: Jul 19, 2019 at 3:20 am


Visibility: N/A

Pressure: 29.89 "Hg

Humidity: 78%

Dew Point: 57 °F

Location of MindenLocation

Past Weather in Minden — Graph

°F

Minden Temperature Yesterday

Maximum temperature yesterday: 77 °F (at 2:20 pm)
Minimum temperature yesterday: 55 °F (at 1:20 am)
Average temperature yesterday: 67 °F

High & Low Weather Summary for the Past Weeks

 TemperatureHumidityPressure
High77 °F (Jul 18, 2:20 pm)100% (Jul 12, 10:20 pm)30.27 "Hg (Jul 12, 10:20 pm)
Low45 °F (Jul 4, 3:20 am)36% (Jul 18, 5:20 pm)29.77 "Hg (Jul 6, 1:20 pm)
Average61 °F74%29.99 "Hg
* Reported Jul 4 3:20 am — Jul 19 3:20 am, Minden. Weather by CustomWeather, © 2019

Note: Actual official high and low records may vary slightly from our data, if they occured in-between our weather recording intervals... More about our weather records

Advertising

Minden Weather History for the Previous 24 Hours

Scroll right to see more
 ConditionsComfort  
Time TempWeatherWind HumidityBarometerVisibility
3:20 am
Fri, Jul 19
64 °FPassing clouds.3 mph78%29.89 "HgN/A
2:20 am64 °FPassing clouds.5 mph78%29.89 "HgN/A
1:20 am66 °FPassing clouds.5 mph73%29.89 "HgN/A
12:20 am70 °FPassing clouds.7 mph53%29.86 "HgN/A
11:20 pm
Thu, Jul 18
70 °FPassing clouds.7 mph53%29.86 "HgN/A
10:20 pm70 °FPassing clouds.7 mph53%29.86 "HgN/A
9:20 pm73 °FBroken clouds.9 mph47%29.83 "HgN/A
8:20 pm75 °FPartly sunny.5 mph50%29.83 "HgN/A
6:20 pm77 °FBroken clouds.5 mph36%29.83 "HgN/A
5:20 pm77 °FPartly sunny.5 mph36%29.83 "HgN/A
4:20 pm77 °FPartly sunny.6 mph39%29.83 "HgN/A
3:20 pm77 °FBroken clouds.2 mph39%29.86 "HgN/A
2:20 pm77 °FPartly sunny.7 mph42%29.86 "HgN/A
1:20 pm75 °FPartly sunny.6 mph41%29.86 "HgN/A
12:20 pm73 °FPartly sunny.7 mph44%29.86 "HgN/A
11:20 am72 °FPartly sunny.7 mph50%29.86 "HgN/A
10:20 am70 °FPartly sunny.2 mph60%29.86 "HgN/A
9:20 am66 °FPartly sunny.1 mph68%29.89 "HgN/A
8:20 am66 °FBroken clouds.No wind68%29.89 "HgN/A
7:20 am61 °FBroken clouds.1 mph83%29.89 "HgN/A
6:20 am57 °FPartly sunny.3 mph88%29.89 "HgN/A
5:20 am57 °FPassing clouds.No wind88%29.89 "HgN/A
4:20 am55 °FPassing clouds.5 mph94%29.92 "HgN/A
Weather by CustomWeather, © 2019

See weather overview